Date,TemperatureHighF,TemperatureAvgF,TemperatureLowF,DewpointHighF,DewpointAvgF,DewpointLowF,HumidityHigh,HumidityAvg,HumidityLow,PressureMaxIn,PressureMinIn,WindSpeedMaxMPH,WindSpeedAvgMPH,GustSpeedMaxMPH,PrecipitationSumIn
2013-3-1,44.0,40.3,37.3,36.9,32.5,27.4,87,74,63,29.69,29.52,22,4,22,0.00
2013-3-2,44.6,39.3,35.8,35.2,32.6,30.5,85,77,61,29.70,29.63,16,3,16,0.00
2013-3-3,40.7,37.4,34.4,34.1,31.8,29.8,92,80,69,29.65,29.58,18,4,18,0.00
2013-3-4,43.8,37.2,31.6,30.9,28.5,26.1,87,71,57,29.73,29.59,25,7,25,0.00
2013-3-5,45.4,38.3,33.6,37.0,31.5,27.0,87,76,66,30.07,29.73,22,6,22,0.00
2013-3-6,41.4,38.8,34.4,37.5,33.7,26.8,92,82,71,30.06,29.91,42,12,42,0.02
2013-3-7,38.5,35.7,34.4,35.0,28.2,24.9,87,74,67,29.93,29.86,42,16,42,1.72
2013-3-8,40.7,35.7,34.0,35.9,26.4,23.4,87,69,64,30.07,29.85,37,12,37,1.22
2013-3-9,41.4,37.8,31.9,36.2,32.8,25.0,87,82,74,30.34,30.06,32,9,36,0.02
2013-3-10,43.4,37.8,31.9,37.6,32.6,24.2,87,82,70,30.41,30.32,18,4,18,0.01
2013-3-11,46.5,41.7,36.7,42.5,37.3,32.7,89,84,74,30.36,30.19,16,5,16,0.00
2013-3-12,52.9,48.9,43.3,47.6,39.9,34.8,83,71,57,30.19,29.82,28,10,28,0.16
2013-3-13,54.7,46.9,39.3,41.1,34.0,25.6,85,62,46,29.81,29.71,20,4,20,0.01
2013-3-14,39.2,34.8,27.5,32.9,24.3,12.6,81,66,51,29.86,29.74,31,5,31,0.00
2013-3-15,39.8,32.7,24.6,32.3,21.3,14.1,79,63,39,29.90,29.69,31,7,32,0.00
2013-3-16,40.2,36.7,32.6,32.2,25.4,16.4,84,65,41,29.89,29.71,20,5,20,0.00
2013-3-17,41.7,35.8,29.8,31.0,21.3,12.7,82,57,34,30.31,29.88,18,4,18,0.00
2013-3-18,36.3,31.3,24.0,29.8,19.2,9.1,81,61,48,30.47,30.24,20,4,20,0.00
2013-3-19,43.2,37.6,32.4,29.8,25.1,20.5,86,61,51,30.25,29.52,28,9,28,1.13
2013-3-20,43.6,37.0,31.9,34.0,28.0,24.1,86,71,48,29.84,29.68,29,6,29,0.00
2013-3-21,39.8,34.8,30.8,34.9,28.0,20.7,86,76,64,29.85,29.60,16,4,18,0.00
2013-3-22,41.7,35.6,29.3,29.4,25.6,19.8,87,68,51,29.78,29.61,19,4,19,0.17
2013-3-23,45.6,38.8,33.1,29.5,26.5,23.9,81,62,44,29.81,29.67,29,6,36,0.00
2013-3-24,47.9,40.0,34.4,35.3,29.5,25.2,85,67,45,29.85,29.75,17,3,17,0.00
2013-3-25,45.1,39.5,34.8,37.8,33.8,30.8,86,80,63,29.78,29.47,26,8,32,0.01
2013-3-26,50.4,41.3,35.1,36.7,32.7,28.0,86,72,47,29.80,29.47,24,6,24,0.02
2013-3-27,53.9,44.4,35.1,38.4,31.0,25.9,82,60,39,29.87,29.75,21,4,21,0.00
2013-3-28,48.7,43.0,38.6,39.7,35.7,30.7,86,76,53,30.04,29.85,19,5,19,0.00
2013-3-29,55.4,45.7,39.3,41.5,38.3,34.9,86,76,54,30.06,30.01,22,4,22,0.00
2013-3-30,52.2,45.9,38.9,40.6,37.6,34.5,87,73,52,30.12,30.03,21,5,21,0.00
2013-3-31,49.1,44.1,36.6,43.4,39.0,30.4,92,82,68,30.15,29.75,23,4,23,0.17